When you browse on this site, cookies collect data to enhance your experience and personalize the content and advertising you see.
Visit our Privacy Policy to learn more. By continuing to use the site, you agree to this use of cookies and data.
  • In Switzerland
  • List of Countries
  • For 7 days
  • Water Temperature
  • Weather Map
  • Weather Widgets
  • user-avatar
    Login

    Hourly Weather Sevan

    Today, 21 August, Wednesday

    Time Temperature Precipitation Wind Pressure Humidity
    00:00 +21°C° 0 mm 3 mps 645 mmHg 38%
    01:00 +20°C° 0 mm 3 mps 645 mmHg 37%
    02:00 +20°C° 0 mm 3 mps 645 mmHg 37%
    03:00 +19°C° 0 mm 2 mps 644 mmHg 37%
    04:00 +19°C° 0 mm 2 mps 645 mmHg 36%
    05:00 +19°C° 0 mm 2 mps 645 mmHg 35%
    06:00 +19°C° 0 mm 2 mps 645 mmHg 34%
    07:00 +23°C° 0 mm 2 mps 646 mmHg 30%
    08:00 +26°C° 0 mm 2 mps 646 mmHg 26%
    09:00 +28°C° 0 mm 2 mps 647 mmHg 22%
    10:00 +30°C° 0 mm 2 mps 647 mmHg 21%
    11:00 +31°C° 0 mm 2 mps 647 mmHg 20%
    12:00 +34°C° 0 mm 2 mps 647 mmHg 19%
    13:00 +34°C° 0 mm 3 mps 646 mmHg 19%
    14:00 +35°C° 0 mm 3 mps 646 mmHg 19%
    15:00 +35°C° 0 mm 4 mps 646 mmHg 18%
    16:00 +34°C° 0 mm 4 mps 645 mmHg 23%
    17:00 +32°C° 0 mm 4 mps 644 mmHg 28%
    18:00 +29°C° 0 mm 4 mps 644 mmHg 32%
    19:00 +27°C° 0 mm 4 mps 644 mmHg 35%
    20:00 +25°C° 0 mm 5 mps 643 mmHg 37%
    21:00 +23°C° 0 mm 5 mps 643 mmHg 40%
    22:00 +22°C° 0 mm 4 mps 643 mmHg 40%
    23:00 +21°C° 0 mm 4 mps 643 mmHg 41%

    Tomorrow, 22 August, Thursday

    Time Temperature Precipitation Wind Pressure Humidity
    00:00 +21°C° 0 mm 3 mps 643 mmHg 41%
    01:00 +20°C° 0 mm 3 mps 642 mmHg 41%
    02:00 +20°C° 0 mm 3 mps 642 mmHg 41%
    03:00 +19°C° 0 mm 2 mps 642 mmHg 40%
    04:00 +19°C° 0 mm 2 mps 642 mmHg 41%
    05:00 +19°C° 0 mm 2 mps 642 mmHg 42%
    06:00 +19°C° 0 mm 2 mps 642 mmHg 42%
    07:00 +23°C° 0 mm 2 mps 643 mmHg 37%
    08:00 +25°C° 0 mm 2 mps 643 mmHg 32%
    09:00 +28°C° 0 mm 2 mps 644 mmHg 27%
    10:00 +30°C° 0 mm 2 mps 644 mmHg 25%
    11:00 +31°C° 0 mm 3 mps 644 mmHg 22%
    12:00 +34°C° 0 mm 3 mps 644 mmHg 19%
    13:00 +34°C° 0 mm 4 mps 643 mmHg 19%
    14:00 +35°C° 0 mm 4 mps 643 mmHg 19%
    15:00 +35°C° 0 mm 4 mps 643 mmHg 18%
    16:00 +33°C° 0 mm 5 mps 642 mmHg 24%
    17:00 +30°C° 0 mm 5 mps 642 mmHg 30%
    18:00 +28°C° 0 mm 6 mps 641 mmHg 36%
    19:00 +27°C° 0 mm 6 mps 641 mmHg 38%
    20:00 +25°C° 0 mm 5 mps 641 mmHg 39%
    21:00 +22°C° 0 mm 5 mps 641 mmHg 41%
    22:00 +21°C° 0 mm 5 mps 641 mmHg 40%
    23:00 +20°C° 0 mm 4 mps 641 mmHg 39%

    Day after tomorrow, 23 August, Friday

    Time Temperature Precipitation Wind Pressure Humidity
    00:00 +20°C° 0 mm 4 mps 641 mmHg 38%
    01:00 +19°C° 0 mm 3 mps 641 mmHg 38%
    02:00 +19°C° 0 mm 3 mps 641 mmHg 39%
    03:00 +18°C° 0 mm 3 mps 641 mmHg 39%
    04:00 +18°C° 0 mm 2 mps 641 mmHg 39%
    05:00 +18°C° 0 mm 2 mps 641 mmHg 39%
    06:00 +18°C° 0 mm 2 mps 641 mmHg 39%
    07:00 +21°C° 0 mm 2 mps 642 mmHg 34%
    08:00 +24°C° 0 mm 2 mps 643 mmHg 29%
    09:00 +27°C° 0 mm 2 mps 644 mmHg 24%
    10:00 +28°C° 0 mm 2 mps 644 mmHg 22%
    11:00 +30°C° 0 mm 3 mps 644 mmHg 21%
    12:00 +31°C° 0 mm 3 mps 644 mmHg 19%
    13:00 +33°C° 0 mm 3 mps 644 mmHg 18%
    14:00 +33°C° 0 mm 3 mps 643 mmHg 18%
    15:00 +33°C° 0 mm 4 mps 643 mmHg 18%
    16:00 +32°C° 0 mm 4 mps 643 mmHg 23%
    17:00 +29°C° 0 mm 5 mps 642 mmHg 28%
    18:00 +27°C° 0 mm 6 mps 642 mmHg 34%
    19:00 +25°C° 0 mm 5 mps 642 mmHg 37%
    20:00 +23°C° 0 mm 5 mps 642 mmHg 40%
    21:00 +21°C° 0 mm 4 mps 642 mmHg 43%
    22:00 +20°C° 0 mm 4 mps 642 mmHg 44%
    23:00 +20°C° 0 mm 3 mps 642 mmHg 44%

    24 August, Saturday

    Time Temperature Precipitation Wind Pressure Humidity
    00:00 +19°C° 0 mm 3 mps 642 mmHg 44%
    01:00 +19°C° 0 mm 3 mps 641 mmHg 45%
    02:00 +18°C° 0 mm 2 mps 641 mmHg 45%
    03:00 +18°C° 0 mm 2 mps 641 mmHg 45%
    04:00 +18°C° 0 mm 2 mps 641 mmHg 45%
    05:00 +18°C° 0 mm 2 mps 642 mmHg 45%
    06:00 +19°C° 0 mm 1 mps 642 mmHg 45%
    07:00 +21°C° 0 mm 2 mps 643 mmHg 40%
    08:00 +24°C° 0 mm 2 mps 644 mmHg 34%
    09:00 +27°C° 0 mm 2 mps 644 mmHg 29%
    10:00 +28°C° 0 mm 2 mps 645 mmHg 26%
    11:00 +30°C° 0 mm 2 mps 645 mmHg 23%
    12:00 +31°C° 0 mm 3 mps 645 mmHg 21%
    13:00 +33°C° 0 mm 3 mps 645 mmHg 20%
    14:00 +32°C° 0 mm 2 mps 645 mmHg 19%
    15:00 +34°C° 0 mm 2 mps 644 mmHg 18%
    16:00 +31°C° 0 mm 2 mps 644 mmHg 23%
    17:00 +30°C° 0 mm 3 mps 644 mmHg 28%
    18:00 +29°C° 0 mm 3 mps 644 mmHg 33%
    19:00 +26°C° 0.1 mm 3 mps 644 mmHg 40%
    20:00 +24°C° 0.1 mm 3 mps 644 mmHg 47%
    21:00 +21°C° 0.1 mm 3 mps 644 mmHg 54%
    22:00 +20°C° 0 mm 3 mps 644 mmHg 55%
    23:00 +20°C° 0 mm 3 mps 643 mmHg 57%

    25 August, Sunday

    Time Temperature Precipitation Wind Pressure Humidity
    00:00 +19°C° 0 mm 2 mps 643 mmHg 59%
    01:00 +19°C° 0 mm 2 mps 643 mmHg 57%
    02:00 +19°C° 0 mm 2 mps 643 mmHg 56%
    03:00 +20°C° 0 mm 1 mps 643 mmHg 55%
    04:00 +20°C° 0 mm 1 mps 643 mmHg 55%
    05:00 +20°C° 0 mm 1 mps 643 mmHg 55%
    06:00 +20°C° 0 mm 1 mps 643 mmHg 55%
    07:00 +22°C° 0 mm 1 mps 644 mmHg 48%
    08:00 +25°C° 0 mm 1 mps 644 mmHg 42%
    09:00 +27°C° 0 mm 2 mps 645 mmHg 35%
    10:00 +29°C° 0 mm 2 mps 645 mmHg 31%
    11:00 +30°C° 0 mm 3 mps 645 mmHg 28%
    12:00 +33°C° 0 mm 3 mps 645 mmHg 24%
    13:00 +33°C° 0 mm 3 mps 645 mmHg 23%
    14:00 +34°C° 0 mm 3 mps 645 mmHg 22%
    15:00 +34°C° 0 mm 3 mps 644 mmHg 21%
    16:00 +33°C° 0 mm 3 mps 644 mmHg 27%
    17:00 +30°C° 0 mm 3 mps 643 mmHg 33%
    18:00 +29°C° 0 mm 3 mps 643 mmHg 39%
    19:00 +27°C° 0.1 mm 3 mps 643 mmHg 43%
    20:00 +26°C° 0.1 mm 4 mps 643 mmHg 48%
    21:00 +23°C° 0.1 mm 4 mps 643 mmHg 53%
    22:00 +22°C° 0 mm 4 mps 643 mmHg 53%
    23:00 +22°C° 0 mm 4 mps 643 mmHg 54%

    26 August, Monday

    Time Temperature Precipitation Wind Pressure Humidity
    00:00 +21°C° 0 mm 3 mps 643 mmHg 55%
    01:00 +21°C° 0 mm 3 mps 642 mmHg 55%
    02:00 +20°C° 0 mm 2 mps 642 mmHg 56%
    03:00 +19°C° 0 mm 2 mps 642 mmHg 56%
    04:00 +19°C° 0 mm 2 mps 642 mmHg 56%
    05:00 +19°C° 0 mm 2 mps 642 mmHg 56%
    06:00 +19°C° 0 mm 2 mps 642 mmHg 55%
    07:00 +23°C° 0 mm 2 mps 643 mmHg 49%
    08:00 +25°C° 0 mm 2 mps 644 mmHg 42%
    09:00 +28°C° 0 mm 2 mps 644 mmHg 35%
    10:00 +29°C° 0 mm 2 mps 644 mmHg 32%
    11:00 +31°C° 0 mm 2 mps 644 mmHg 28%
    12:00 +33°C° 0 mm 3 mps 645 mmHg 24%
    13:00 +34°C° 0 mm 2 mps 644 mmHg 22%
    14:00 +35°C° 0 mm 2 mps 644 mmHg 20%
    15:00 +34°C° 0 mm 1 mps 644 mmHg 18%
    16:00 +33°C° 0.1 mm 3 mps 643 mmHg 26%
    17:00 +30°C° 0.1 mm 4 mps 643 mmHg 34%
    18:00 +28°C° 0.1 mm 5 mps 642 mmHg 42%
    19:00 +26°C° 0 mm 5 mps 643 mmHg 48%
    20:00 +23°C° 0 mm 6 mps 643 mmHg 53%
    21:00 +21°C° 0 mm 6 mps 643 mmHg 59%
    22:00 +21°C° 0 mm 5 mps 643 mmHg 58%
    23:00 +20°C° 0 mm 4 mps 643 mmHg 57%
    Show more